Flag for U.S.A. Weather past 2 weeks in Hayward, California, U.S.A.

Now
79 °F

Sunny.


Feels Like: 79 °F
Forecast: 51 / 78 °F
Wind: 13 mph from West

Location: Hayward Air Terminal

Current Time: Apr 27, 2015 at 2:40:53 PM

Latest Report: Apr 27, 2015 at 1:54 PM


Visibility: 10 mi

Pressure: 29.98 "Hg

Humidity: 36%

Dew point: 50 °F

Location of HaywardLocation

Historic Weather in Hayward — Graph

°F

Hayward temperature yesterday

Maximum temperature yesterday: 68 °F (at 3:54 PM)
Minimum temperature yesterday: 48 °F (at 5:54 AM)
Average temperature yesterday: 58 °F

Past Weeks' High & Low Weather Summary

 TemperatureHumidityPressure
High81 °F (Apr 16, 3:54 PM)97% (Apr 25, 3:54 AM)30.37 "Hg (Apr 25, 3:54 AM)
Low47 °F (Apr 15, 5:54 AM)14% (Apr 16, 3:54 PM)29.86 "Hg (Apr 21, 6:04 AM)
Average58 °F67%30.03 "Hg
* Reported Apr 12 12:54 PM — Apr 27 12:54 PM, Hayward, Weather by CustomWeather, © 2015

Note: Actual official high and low records may vary slightly from our data, if they occured in-between our weather recording intervals... More about our weather records

Advertising

Hayward weather history for previous 24 hours

 ConditionsComfort  
Time TempWeatherWind HumidityBarometerVisibility
12:54 PM
Mon, Apr 27
76 °FSunny.10 mph40%30.00 "Hg10 mi
11:54 AM74 °FSunny.9 mph43%30.03 "Hg10 mi
10:54 AM70 °FSunny.9 mph49%30.05 "Hg10 mi
9:54 AM66 °FSunny.6 mph63%30.05 "Hg10 mi
8:54 AM62 °FSunny.No wind70%30.06 "Hg10 mi
7:54 AM58 °FSunny.No wind75%30.06 "Hg10 mi
6:54 AM53 °FClear.5 mph86%30.06 "Hg10 mi
5:54 AM53 °FClear.3 mph86%30.06 "Hg10 mi
4:54 AM51 °FClear.No wind89%30.06 "Hg10 mi
3:54 AM52 °FClear.3 mph86%30.06 "Hg10 mi
2:54 AM53 °FClear.No wind86%30.06 "Hg10 mi
1:54 AM55 °FClear.No wind83%30.07 "Hg10 mi
12:54 AM55 °FClear.3 mph83%30.08 "Hg10 mi
11:54 PM
Sun, Apr 26
57 °FClear.No wind81%30.10 "Hg10 mi
10:54 PM57 °FClear.No wind81%30.11 "Hg10 mi
9:54 PM57 °FClear.6 mph81%30.12 "Hg10 mi
8:54 PM59 °FClear.7 mph75%30.11 "Hg10 mi
7:54 PM59 °FSunny.7 mph78%30.10 "Hg10 mi
6:54 PM61 °FSunny.10 mph72%30.09 "Hg10 mi
5:54 PM64 °FSunny.16 mph63%30.10 "Hg10 mi
4:54 PM65 °FSunny.18 mph59%30.11 "Hg10 mi
3:54 PM68 °FSunny.14 mph53%30.13 "Hg10 mi
2:54 PM67 °FSunny.17 mph53%30.14 "Hg10 mi
Weather by CustomWeather, © 2015

See weather overviewHow to use our weather pages